Other Surface Observations
Issued by NWS Tucson, AZ

Home | Current Version | Previous Version | Text Only | Print | Product List | Glossary On
Versions: 1 2 3 4 5 6 7 8 9 10 11 12 13 14 15 16 17 18 19 20 21 22 23 24 25 26 27 28 29 30 31 32 33 34 35 36 37 38 39 40 41 42 43 44 45 46 47 48 49 50
000
SXUS55 KTWC 292215
OSOTWC

WEATHER ROUNDUP FOR SOUTHEAST ARIZONA
NATIONAL WEATHER SERVICE TUCSON AZ
315 PM MST SUN MAR 29 2015

AZZ504>506-514-292315-
LOCATION       SKY/WX    TMP DP  RH WIND       PRES   REMARKS
TUCSON         MOSUNNY   92  17   6 W16G23    30.04F
DAVIS-MONTHAN  NOT AVBL
CHILDRENS PARK N/A       89  23   9 W2                PIMA CO DEQ
ALVERNON/22ND  N/A      N/A N/A N/A N/A               PIMA CO DEQ
CHERRY/GLENN   N/A      N/A N/A N/A N/A               PIMA CO DEQ
TANGERINE      N/A       89 N/A N/A W8                PIMA CO DEQ
CONTL RANCH    N/A       92  25   9 W6                PIMA CO DEQ
GRANT/1ST      N/A       90  21   8 W6                PIMA CO DEQ
CRAYCROFT/22ND N/A      N/A N/A N/A N/A               PIMA CO DEQ
GOLFLINKS/KOLB N/A       88  22   9 NW7               PIMA CO DEQ
AJO/12TH       N/A       90  21   8 W5                PIMA CO DEQ
SAGUARO EAST   N/A      N/A N/A N/A N/A               PIMA CO DEQ
FAIRGROUNDS    N/A       89 N/A N/A SW14              PIMA CO DEQ
SAGUARO        N/A       90  14   6 W7G12             *SABINO CYN
SAN CARLOS     N/A       88  19   8 SE9G17            *SAN CARLOS
GREEN VALLEY   N/A       89  20   8 SW10              PIMA CO DEQ
HORSE CAMP CYN N/A       82  18   9 W15G21            *ARAVAIPA CYN
RINCON MTNS    N/A       68  17  14 SW5G17            *NR MANNING CAMP
$$

AZZ509>511-292315-
LOCATION       SKY/WX    TMP DP  RH WIND       PRES   REMARKS
SAFFORD        PTSUNNY   88  18   7 VRB3      30.04F
STRAY HORSE    N/A       65   9  11 SW10G19           *
TRAIL CABIN    N/A       73  13  10 W8G17             *N OF GRANVILLE
BLACK HILLS    N/A       87  19   8 N8G16             *N OF FT THOMAS
DRY LAKE       N/A       70  17  13 W6G13             *NATANES MTNS
NOON CREEK     N/A       82  18   9 SW6G13            *PINALENO MTNS
COLUMBINE      N/A       59   3  10 SW9G16            *PINALENO MTNS
GUTHRIE        N/A       73  13  10 W10G21            *SW OF GUTHRIE
$$

AZZ502-503-513-292315-
LOCATION       SKY/WX    TMP DP  RH WIND       PRES   REMARKS
NOGALES        PTSUNNY   85  19   9 W12G17    30.12F
SELLS          N/A       91  22   8 SW12G25           *
SASABE         N/A       88  22   9 W9G24             *ALTAR VLY
HOPKINS        N/A       75  19  12 W8G23             *SANTA RITA MTNS
CARR CYN       N/A       80  19  10 N4G12             *W OF HEREFORD
$$

AZZ507-508-512-292315-
LOCATION       SKY/WX    TMP DP  RH WIND       PRES   REMARKS
SIERRA VISTA   NOT AVBL
DOUGLAS        PTSUNNY   83  23  11 S12       30.13F
EMPIRE MTNS    N/A       82  18   9 SW11G23           *LAS CIENEGAS NCA
MULESHOE RANCH N/A       84  19   9 W10G22            *PRESERVE
HEADQUARTERS   N/A       78  15   9 SW4G18            *CHIRICAHUA MTNS
$$

.............................NOTES.............................
THIS IS AN AUTOMATED COLLECTIVE WITH MINIMAL QUALITY CONTROL.
PIMA CO DEQ SITES HAVE NONSTANDARD WIND SENSOR HEIGHTS.
PIMA CO DEQ SITES DO NOT REPORT WIND GUSTS.
* INDICATES WIND SENSORS LOCATED AT 20 FEET INSTEAD OF 33 FEET.
..............................KEY..............................
SKY/WX - SKY CONDITION/WEATHER
TMP    - TEMPERATURE IN FAHRENHEIT
DP     - DEWPOINT IN FAHRENHEIT
RH     - RELATIVE HUMIDITY IN PERCENT
WIND   - DIRECTION AND SPEED IN MILES PER HOUR (MPH)
VRB    - VARIABLE WIND DIRECTION
PRES   - MEAN SEA LEVEL PRESSURE IN INCHES OF MERCURY
         F - FALLING PRESSURE   R - RISING PRESSURE
         S - STEADY PRESSURE
VSB    - VISIBILITY IN MILES
HX     - HEAT INDEX IN FAHRENHEIT
WCI    - WIND CHILL INDEX IN FAHRENHEIT
N/A    - NOT AVAILABLE
AFB    - AIR FORCE BASE
         DAVIS-MONTHAN IS DAVIS-MONTHAN AIR FORCE BASE
CYN    - CANYON
MTNS   - MOUNTAINS
NCA    - NATIONAL CONSERVATION AREA
NR     - NEAR
VLY    - VALLEY
CONTL  - CONTINENTAL
PIMA CO DEQ - PIMA COUNTY DEPT OF ENVIRONMENTAL QUALITY



USA.gov is the U.S. government's official web portal to all federal, state and local government web resources and services.